Volver al catálogo

DELTA 1 DEB

ActivoLEO
NORAD 2707·DEBRIS·🇺🇸 United States

Lanzado Jan 26, 1967 desde Vandenberg Space Force Base

Loading…

Próximos Pases (próximas 24 horas)

TLE

ActualizadoSource: Space-Track

Época: Sep 13, 2026, 17:27 UTC

1 02707U 67006D   26256.72744337 -.00000035  00000-0  60848-4 0  9992
2 02707 101.9058 231.8316 0148779 188.8117 348.4913 12.79411111783677

Sigue DELTA 1 DEB en tiempo real con AllMySat

Download on the App Store